User: anonymous   Login
Location: Unspecified
(0.0000°N, 0.0000°E)
Time: 12:43:22
(UTC+02:00)
Language:

ATLAS 3B CENTAUR R/B - Orbit

View from above orbital plane
View from above orbital plane
View from above satellite
View from above satellite

Ground track
Ground track

The orbit data is extracted from the following two-line orbital elements,

1 28118U 03057B   17087.08073008 +.00072784 +00000-0 +10353-2 0  9996
2 28118 028.1456 343.2941 3111082 271.4755 053.7206 09.25836154282122
Epoch (UTC): 28 March 2017 01:56:15
Eccentricity: 0.3111082
inclination: 28.1456°
perigee height: 221 km
apogee height: 6182 km
right ascension of ascending node: 343.2941°
argument of perigee: 271.4755°
revolutions per day: 9.25836154
mean anomaly at epoch: 53.7206°
orbit number at epoch: 28212

The dashed part of the orbit path shows where the satellite is in the earth's shadow,  

DLR